Location: Ago
(8.4667°N, 4.4833°E)
Time: 23:11:49
(UTC+00:00)

Cosmos 1842 - Pass Details

Date: 18 September 2020
Orbit: 521 x 537 km, 82.5° (Epoch: 20 October)

Event Time Altitude Azimuth Distance (km) Brightness Sun altitude
Rises 19:11:35 0° 347° (NNW) 2,638 7.0 -23.4°
Reaches altitude 10° 19:13:46 10° 341° (NNW) 1,753 6.1 -23.9°
Maximum altitude 19:17:28 48° 267° (W) 690 4.1 -24.8°
Enters shadow 19:19:39 22° 202° (SSW) 1,172 5.1 -25.4°
